Regional Weather Roundup
Issued by NWS Sioux Falls, SD

Home | Current Version | Previous Version | Text Only | Print | Product List | Glossary On
Versions: 1 2 3 4 5 6 7 8 9 10 11 12 13 14 15 16 17 18 19 20 21 22 23 24 25 26 27 28 29 30 31 32 33 34 35 36 37 38 39 40 41 42 43 44 45 46 47 48 49 50
000
ASUS43 KFSD 271510
RWRFSD

WEATHER ROUNDUP FOR SE SOUTH DAKOTA/SW MINNESOTA/NW IOWA
NATIONAL WEATHER SERVICE SIOUX FALLS SD
900 AM CST TUE JAN 27 2015

NOTE: "FAIR" INDICATES FEW OR NO CLOUDS BELOW 12,000 FEET WITH NO
SIGNIFICANT WEATHER AND OR OBSTRUCTIONS TO VISIBILITY.


SDZ038>040-050-052>070-271600-
SOUTHEAST SOUTH DAKOTA

CITY           SKY/WX    TMP DP  RH WIND       PRES   REMARKS
CHAMBERLAIN    CLEAR     33  31  91 SE10      29.98S WCI  25
HURON          CLEAR     31  29  92 SE10      30.03F WCI  22
MADISON        FOG       28  28 100 S10       30.07R VSB 3/4 WCI  19
MITCHELL       CLEAR     33  31  92 SE12      30.06S WCI  24
SIOUX FALLS    FOG       29  28  96 SE7       30.09S VSB 1/4 WCI  22
WINNER         FAIR      36  30  79 S6        29.96S
YANKTON        SUNNY     30  28  93 E7        30.09S WCI  23
$$

MNZ071-072-080-081-089-090-097-098-271600-
SOUTHWEST MINNESOTA

CITY           SKY/WX    TMP DP  RH WIND       PRES   REMARKS
FAIRMONT       SUNNY     30  19  64 CALM      30.13R
JACKSON        SUNNY     32  30  93 CALM      30.13R
LUVERNE        FOG       32  30  93 SE8       30.11R VSB 1/4 WCI  25
MARSHALL       CLOUDY    28  27  93 CALM      30.12F VSB 1/4
MONTEVIDEO     CLOUDY    28  28 100 SW6       30.13S WCI  22
PIPESTONE      SNOW      28  28 100 SE6       30.08R VSB<1/4 WCI  22
REDWOOD FALLS  CLOUDY    31  28  89 S7        30.13S WCI  24
TRACY          FOG       30  30  98 SE6       30.11F VSB 1/4 WCI  24
WINDOM         CLOUDY    30  30 100 CALM      30.13R
WORTHINGTON    CLOUDY    28  27  93 E9        30.12R VSB<1/4 WCI  20
$$

IAZ001>003-012>014-020>022-031-032-NEZ013-014-SDZ071-271600-
NORTHWEST IOWA

CITY           SKY/WX    TMP DP  RH WIND       PRES   REMARKS
CHEROKEE       MOSUNNY   32  32 100 CALM      30.13S
DENISON        SUNNY     32  32 100 E5        30.11S WCI  27
ESTHERVILLE    MOSUNNY   29  29 100 CALM      30.13R
LE MARS        FOG       30  30 100 SE3       30.13R VSB<1/4
ORANGE CITY    FOG       30  30 100 SE6       30.11S VSB<1/4 WCI  24
SHELDON        FOG       30  30 100 SE8       30.11R VSB<1/4 WCI  23
SIOUX CITY     MOSUNNY   30  29  96 SE6       30.13R WCI  24
SPENCER        FOG       30  28  92 E7        30.14R VSB 1/2 WCI  23
STORM LAKE     SUNNY     30  32 100 E6        30.13S WCI  24
$$

ABBREVIATIONS USED IN REMARKS
   TC - TEMPERATURE IN CELSIUS
  WCI - WIND CHILL INDEX
   HX - HEAT INDEX
  VSB - VISIBILITY




USA.gov is the U.S. government's official web portal to all federal, state and local government web resources and services.